| time (UTC) | temp F | wind direction | speed knots | gust knots | rain 1hr in | rain 24hr in | rain mn in | humidity % | barometer mb |
| 20260905080547 | 66 | 109 | 1.7 | 2.6 | 0.00 | 0.01 | 0.00 | 62 | 1022.8 |
| 20260905080055 | 66 | 113 | 1.7 | 3.5 | 0.00 | 0.01 | 0.00 | 62 | 1022.7 |
| 20260905075604 | 66 | 109 | 2.6 | 3.5 | 0.00 | 0.01 | 0.00 | 62 | 1022.8 |
| 20260905075005 | 66 | 127 | 1.7 | 3.5 | 0.00 | 0.01 | 0.00 | 62 | 1022.8 |
| 20260905074601 | 66 | 126 | 1.7 | 3.5 | 0.00 | 0.01 | 0.00 | 62 | 1022.8 |
| 20260905074005 | 66 | 141 | 2.6 | 3.5 | 0.00 | 0.01 | 0.00 | 61 | 1022.8 |
| 20260905073602 | 66 | 137 | 1.7 | 2.6 | 0.00 | 0.01 | 0.00 | 61 | 1022.8 |
| 20260905073005 | 67 | 126 | 1.7 | 3.5 | 0.00 | 0.01 | 0.00 | 61 | 1022.8 |
| 20260905072606 | 67 | 123 | 2.6 | 3.5 | 0.00 | 0.01 | 0.00 | 61 | 1022.9 |
| 20260905072053 | 67 | 126 | 1.7 | 2.6 | 0.00 | 0.01 | 0.00 | 60 | 1022.8 |
| 20260905071607 | 67 | 130 | 1.7 | 2.6 | 0.00 | 0.01 | 0.00 | 60 | 1022.8 |
| 20260905071054 | 67 | 130 | 1.7 | 2.6 | 0.00 | 0.01 | 0.00 | 60 | 1022.8 |
| 20260905070545 | 67 | 130 | 0.9 | 6.1 | 0.00 | 0.01 | 0.00 | 59 | 1022.8 |
| 20260905070053 | 67 | 130 | 1.7 | 6.1 | 0.00 | 0.01 | 0.00 | 59 | 1022.9 |
| 20260905065543 | 68 | 51 | 0.0 | 1.7 | 0.00 | 0.01 | 0.00 | 57 | 1022.8 |
| 20260905065051 | 68 | 51 | 0.0 | 0.0 | 0.00 | 0.01 | 0.00 | 57 | 1022.8 |
| 20260905064600 | 68 | 51 | 0.0 | 1.7 | 0.00 | 0.01 | 0.00 | 57 | 1022.6 |
| 20260905064004 | 68 | 51 | 0.0 | 1.7 | 0.00 | 0.01 | 0.00 | 58 | 1022.6 |
| 20260905063557 | 68 | 51 | 0.0 | 1.7 | 0.00 | 0.01 | 0.00 | 58 | 1022.6 |
| 20260905063002 | 69 | 51 | 0.9 | 2.6 | 0.00 | 0.01 | 0.00 | 59 | 1022.6 |
| 20260905062557 | 69 | 49 | 0.9 | 2.6 | 0.00 | 0.01 | 0.00 | 59 | 1022.6 |
| 20260905062046 | 69 | 22 | 0.9 | 3.5 | 0.00 | 0.01 | 0.00 | 59 | 1022.6 |
| 20260905061606 | 70 | 355 | 1.7 | 5.2 | 0.00 | 0.01 | 0.00 | 58 | 1022.6 |
| 20260905061102 | 70 | 338 | 2.6 | 4.3 | 0.00 | 0.01 | 0.00 | 57 | 1022.6 |
| 20260905060504 | 70 | 333 | 1.7 | 5.2 | 0.00 | 0.01 | 0.00 | 56 | 1022.6 |
| 20260905060003 | 71 | 308 | 3.5 | 7.8 | 0.00 | 0.01 | 0.00 | 55 | 1022.7 |
| 20260905055556 | 71 | 295 | 4.3 | 7.8 | 0.00 | 0.01 | 0.01 | 54 | 1022.7 |
| 20260905055105 | 71 | 311 | 2.6 | 5.2 | 0.00 | 0.01 | 0.01 | 55 | 1022.8 |
| 20260905054558 | 71 | 299 | 2.6 | 6.1 | 0.00 | 0.01 | 0.01 | 54 | 1022.8 |
| 20260905054002 | 71 | 286 | 3.5 | 8.7 | 0.00 | 0.01 | 0.01 | 54 | 1022.9 |
| 20260905053559 | 71 | 287 | 4.3 | 8.7 | 0.00 | 0.01 | 0.01 | 54 | 1022.8 |
| 20260905053002 | 70 | 247 | 3.5 | 7.0 | 0.00 | 0.01 | 0.01 | 55 | 1022.7 |
| 20260905052509 | 70 | 277 | 2.6 | 9.6 | 0.00 | 0.01 | 0.01 | 55 | 1022.7 |
| 20260905052106 | 70 | 284 | 5.2 | 9.6 | 0.00 | 0.01 | 0.01 | 55 | 1022.8 |
| 20260905051507 | 71 | 304 | 2.6 | 7.8 | 0.00 | 0.01 | 0.01 | 55 | 1022.8 |
| 20260905051106 | 71 | 291 | 4.3 | 7.8 | 0.00 | 0.01 | 0.01 | 54 | 1022.9 |
| 20260905050508 | 71 | 250 | 2.6 | 7.8 | 0.00 | 0.01 | 0.01 | 54 | 1022.8 |
| 20260905050104 | 71 | 190 | 2.6 | 7.0 | 0.00 | 0.01 | 0.01 | 54 | 1022.6 |
| 20260905045556 | 71 | 156 | 4.3 | 9.6 | 0.00 | 0.01 | 0.01 | 54 | 1022.5 |
| 20260905045102 | 71 | 162 | 6.1 | 10.4 | 0.00 | 0.01 | 0.01 | 54 | 1022.5 |
| 20260905044509 | 71 | 153 | 7.0 | 10.4 | 0.00 | 0.01 | 0.01 | 53 | 1022.4 |
| 20260905044014 | 72 | 163 | 7.0 | 10.4 | 0.00 | 0.01 | 0.01 | 52 | 1022.5 |
| 20260905043503 | 72 | 148 | 5.2 | 10.4 | 0.00 | 0.01 | 0.01 | 51 | 1022.5 |
| 20260905043008 | 73 | 150 | 6.1 | 10.4 | 0.00 | 0.01 | 0.01 | 49 | 1022.4 |
| 20260905042605 | 73 | 153 | 5.2 | 9.6 | 0.00 | 0.01 | 0.01 | 47 | 1022.3 |
| 20260905042057 | 73 | 160 | 2.6 | 3.5 | 0.00 | 0.01 | 0.01 | 44 | 1022.1 |
| 20260905041613 | 73 | 155 | 1.7 | 2.6 | 0.00 | 0.01 | 0.01 | 44 | 1022.0 |
| 20260905041053 | 73 | 207 | 0.9 | 1.7 | 0.00 | 0.01 | 0.01 | 44 | 1022.0 |
| 20260905040603 | 73 | 207 | 0.9 | 1.7 | 0.00 | 0.01 | 0.01 | 44 | 1021.9 |
| 20260905040058 | 74 | 207 | 0.9 | 1.7 | 0.00 | 0.01 | 0.01 | 44 | 1022.1 |
| 20260905035544 | 74 | 207 | 0.0 | 1.7 | 0.00 | 0.01 | 0.01 | 44 | 1022.1 |
| 20260905035051 | 74 | 207 | 0.0 | 1.7 | 0.00 | 0.01 | 0.01 | 44 | 1022.0 |
| 20260905034603 | 74 | 207 | 0.0 | 1.7 | 0.00 | 0.01 | 0.01 | 46 | 1022.1 |
| 20260905034003 | 74 | 207 | 0.0 | 1.7 | 0.00 | 0.01 | 0.01 | 44 | 1022.0 |
| 20260905033600 | 74 | 207 | 0.9 | 1.7 | 0.00 | 0.01 | 0.01 | 44 | 1022.0 |
| 20260905033003 | 74 | 207 | 0.9 | 1.7 | 0.00 | 0.01 | 0.01 | 44 | 1022.0 |
| 20260905032601 | 74 | 207 | 0.9 | 1.7 | 0.00 | 0.01 | 0.01 | 44 | 1021.9 |
| 20260905032054 | 74 | 207 | 1.7 | 2.6 | 0.00 | 0.01 | 0.01 | 44 | 1022.0 |
| 20260905031559 | 74 | 194 | 0.9 | 2.6 | 0.00 | 0.01 | 0.01 | 45 | 1021.8 |
| 20260905031052 | 74 | 178 | 0.9 | 2.6 | 0.00 | 0.01 | 0.01 | 45 | 1021.9 |
| 20260905030600 | 74 | 202 | 0.9 | 1.7 | 0.00 | 0.01 | 0.01 | 45 | 1021.8 |
| 20260905025543 | 74 | 202 | 0.9 | 1.7 | 0.00 | 0.01 | 0.01 | 45 | 1021.7 |
| 20260905025050 | 74 | 202 | 0.9 | 1.7 | 0.00 | 0.01 | 0.01 | 45 | 1021.6 |
| 20260905024543 | 74 | 202 | 0.0 | 0.9 | 0.00 | 0.01 | 0.01 | 45 | 1021.5 |
| 20260905024051 | 74 | 202 | 0.0 | 1.7 | 0.00 | 0.01 | 0.01 | 44 | 1021.5 |
| 20260905023547 | 74 | 202 | 0.0 | 1.7 | 0.00 | 0.01 | 0.01 | 44 | 1021.3 |
| 20260905023035 | 75 | 202 | 0.0 | 1.7 | 0.00 | 0.01 | 0.01 | 44 | 1021.3 |
| 20260905022541 | 75 | 202 | 0.0 | 1.7 | 0.00 | 0.01 | 0.01 | 44 | 1021.1 |
| 20260905022049 | 75 | 202 | 0.0 | 1.7 | 0.00 | 0.01 | 0.01 | 44 | 1021.0 |
| 20260905021558 | 75 | 202 | 0.0 | 0.9 | 0.00 | 0.01 | 0.01 | 45 | 1021.0 |
| 20260905021002 | 76 | 202 | 0.0 | 0.9 | 0.00 | 0.01 | 0.01 | 45 | 1021.0 |
| 20260905020507 | 76 | 202 | 0.0 | 0.9 | 0.00 | 0.01 | 0.01 | 44 | 1020.9 |
| 20260905020109 | 76 | 202 | 0.0 | 0.9 | 0.00 | 0.01 | 0.01 | 44 | 1020.9 |
| 20260905015548 | 77 | 202 | 0.0 | 0.9 | 0.00 | 0.01 | 0.01 | 44 | 1020.9 |
| 20260905015056 | 77 | 202 | 0.9 | 0.9 | 0.00 | 0.01 | 0.01 | 43 | 1021.0 |
| 20260905014605 | 77 | 202 | 0.0 | 1.7 | 0.00 | 0.01 | 0.01 | 44 | 1020.9 |
| 20260905014007 | 77 | 202 | 0.0 | 1.7 | 0.00 | 0.01 | 0.01 | 43 | 1020.9 |
| 20260905013519 | 78 | 202 | 0.0 | 1.7 | 0.00 | 0.01 | 0.01 | 43 | 1020.9 |
| 20260905013030 | 78 | 202 | 0.0 | 1.7 | 0.00 | 0.01 | 0.01 | 43 | 1021.0 |
| 20260905012531 | 78 | 209 | 0.9 | 1.7 | 0.00 | 0.01 | 0.01 | 42 | 1021.1 |
| 20260905012039 | 78 | 208 | 0.9 | 2.6 | 0.00 | 0.01 | 0.01 | 42 | 1021.1 |
| 20260905011625 | 78 | 233 | 0.0 | 4.3 | 0.00 | 0.01 | 0.01 | 43 | 1021.1 |
| 20260905011055 | 79 | 228 | 1.7 | 4.3 | 0.01 | 0.01 | 0.01 | 42 | 1021.1 |
| 20260905010544 | 79 | 213 | 2.6 | 4.3 | 0.01 | 0.01 | 0.01 | 41 | 1021.1 |
| 20260905010053 | 79 | 206 | 0.9 | 4.3 | 0.01 | 0.01 | 0.01 | 42 | 1021.1 |
| 20260905005600 | 79 | 224 | 0.9 | 4.3 | 0.01 | 0.01 | 0.01 | 43 | 1021.1 |
| 20260905005004 | 80 | 219 | 1.7 | 7.0 | 0.01 | 0.01 | 0.01 | 42 | 1021.1 |
| 20260905004600 | 80 | 279 | 3.5 | 7.0 | 0.01 | 0.01 | 0.01 | 42 | 1021.1 |
| 20260905004002 | 80 | 188 | 3.5 | 6.1 | 0.01 | 0.01 | 0.01 | 43 | 1021.0 |
| 20260905003600 | 80 | 169 | 2.6 | 5.2 | 0.01 | 0.01 | 0.01 | 45 | 1021.0 |
| 20260905003003 | 80 | 194 | 2.6 | 7.0 | 0.01 | 0.01 | 0.01 | 46 | 1021.0 |
| 20260905002600 | 80 | 201 | 3.5 | 7.0 | 0.01 | 0.01 | 0.01 | 45 | 1021.1 |
| 20260905002051 | 80 | 66 | 3.5 | 13.0 | 0.01 | 0.01 | 0.01 | 40 | 1021.0 |
| 20260905001601 | 81 | 173 | 5.2 | 13.0 | 0.01 | 0.01 | 0.01 | 41 | 1021.0 |
| 20260905001050 | 83 | 169 | 3.5 | 5.2 | 0.00 | 0.00 | 0.00 | 37 | 1021.0 |
| 20260905000538 | 84 | 140 | 2.6 | 4.3 | 0.00 | 0.00 | 0.00 | 33 | 1021.0 |
| 20260905000046 | 84 | 190 | 1.7 | 5.2 | 0.00 | 0.00 | 0.00 | 32 | 1020.9 |
| 20260904235556 | 84 | 190 | 1.7 | 5.2 | 0.00 | 0.00 | 0.00 | 32 | 1020.7 |
| 20260904235103 | 84 | 170 | 0.9 | 4.3 | 0.00 | 0.00 | 0.00 | 32 | 1020.8 |
| 20260904234552 | 84 | 200 | 0.9 | 5.2 | 0.00 | 0.00 | 0.00 | 32 | 1020.8 |
| 20260904234101 | 84 | 109 | 1.7 | 6.1 | 0.00 | 0.00 | 0.00 | 32 | 1020.8 |
| 20260904233553 | 83 | 94 | 1.7 | 5.2 | 0.00 | 0.00 | 0.00 | 33 | 1020.9 |
| 20260904233103 | 83 | 110 | 0.9 | 5.2 | 0.00 | 0.00 | 0.00 | 33 | 1020.9 |
| 20260904232554 | 83 | 108 | 2.6 | 3.5 | 0.00 | 0.00 | 0.00 | 33 | 1020.8 |
| 20260904232101 | 83 | 34 | 0.9 | 3.5 | 0.00 | 0.00 | 0.00 | 33 | 1020.9 |
| 20260904231506 | 83 | 89 | 0.9 | 3.5 | 0.00 | 0.00 | 0.00 | 33 | 1021.0 |
| 20260904231100 | 83 | 126 | 0.9 | 5.2 | 0.00 | 0.00 | 0.00 | 33 | 1021.0 |
| 20260904230504 | 83 | 137 | 1.7 | 5.2 | 0.00 | 0.00 | 0.00 | 33 | 1021.0 |
| 20260904230059 | 83 | 152 | 2.6 | 5.2 | 0.00 | 0.00 | 0.00 | 33 | 1021.1 |
| 20260904225546 | 83 | 200 | 0.9 | 2.6 | 0.00 | 0.00 | 0.00 | 33 | 1021.1 |
| 20260904225057 | 83 | 188 | 0.0 | 4.3 | 0.00 | 0.00 | 0.00 | 33 | 1021.2 |
| 20260904224605 | 83 | 187 | 1.7 | 4.3 | 0.00 | 0.00 | 0.00 | 33 | 1021.1 |
| 20260904224007 | 83 | 100 | 1.7 | 7.0 | 0.00 | 0.00 | 0.00 | 33 | 1021.2 |
| 20260904223602 | 83 | 156 | 2.6 | 7.0 | 0.00 | 0.00 | 0.00 | 33 | 1021.1 |
| 20260904223004 | 84 | 167 | 3.5 | 7.8 | 0.00 | 0.00 | 0.00 | 32 | 1021.2 |
| 20260904222600 | 84 | 159 | 2.6 | 7.8 | 0.00 | 0.00 | 0.00 | 32 | 1021.3 |
| 20260904222002 | 84 | 173 | 2.6 | 5.2 | 0.00 | 0.00 | 0.00 | 32 | 1021.3 |
| 20260904221559 | 85 | 165 | 2.6 | 5.2 | 0.00 | 0.00 | 0.00 | 32 | 1021.4 |
| 20260904221002 | 85 | 204 | 0.9 | 3.5 | 0.00 | 0.00 | 0.00 | 31 | 1021.3 |
| 20260904220509 | 85 | 271 | 0.9 | 5.2 | 0.00 | 0.00 | 0.00 | 31 | 1021.4 |
| 20260904220108 | 85 | 240 | 0.9 | 5.2 | 0.00 | 0.00 | 0.00 | 31 | 1021.4 |
| 20260904215552 | 86 | 223 | 1.7 | 5.2 | 0.00 | 0.00 | 0.00 | 31 | 1021.4 |
| 20260904215104 | 86 | 184 | 0.9 | 5.2 | 0.00 | 0.00 | 0.00 | 31 | 1021.4 |
| 20260904214555 | 85 | 58 | 0.9 | 5.2 | 0.00 | 0.00 | 0.00 | 32 | 1021.4 |
| 20260904214101 | 84 | 111 | 0.9 | 7.8 | 0.00 | 0.00 | 0.00 | 33 | 1021.4 |
| 20260904213555 | 84 | 139 | 2.6 | 7.8 | 0.00 | 0.00 | 0.00 | 32 | 1021.5 |
| 20260904213108 | 85 | 126 | 4.3 | 7.8 | 0.00 | 0.00 | 0.00 | 33 | 1021.5 |
| 20260904212507 | 85 | 195 | 1.7 | 7.8 | 0.00 | 0.00 | 0.00 | 32 | 1021.6 |
| 20260904212101 | 85 | 134 | 5.2 | 7.8 | 0.00 | 0.00 | 0.00 | 33 | 1021.7 |
| 20260904211504 | 85 | 144 | 4.3 | 9.6 | 0.00 | 0.00 | 0.00 | 32 | 1021.7 |
| 20260904211059 | 86 | 116 | 3.5 | 9.6 | 0.00 | 0.00 | 0.00 | 31 | 1021.7 |
| 20260904210503 | 87 | 93 | 1.7 | 7.0 | 0.00 | 0.00 | 0.00 | 30 | 1021.8 |
| 20260904210101 | 88 | 101 | 3.5 | 7.8 | 0.00 | 0.00 | 0.00 | 30 | 1021.8 |
| 20260904205551 | 88 | 180 | 3.5 | 7.8 | 0.00 | 0.00 | 0.00 | 30 | 1021.9 |
| 20260904205059 | 88 | 174 | 3.5 | 7.8 | 0.00 | 0.00 | 0.00 | 30 | 1021.9 |
| 20260904204503 | 88 | 128 | 1.7 | 10.4 | 0.00 | 0.00 | 0.00 | 30 | 1022.1 |
| 20260904204010 | 88 | 169 | 2.6 | 10.4 | 0.00 | 0.00 | 0.00 | 30 | 1022.2 |
| 20260904203606 | 88 | 267 | 2.6 | 8.7 | 0.00 | 0.00 | 0.00 | 30 | 1022.2 |
| 20260904203015 | 87 | 296 | 3.5 | 7.8 | 0.00 | 0.00 | 0.00 | 30 | 1022.4 |
| 20260904202605 | 88 | 166 | 5.2 | 11.3 | 0.00 | 0.00 | 0.00 | 30 | 1022.2 |
| 20260904202006 | 88 | 190 | 5.2 | 10.4 | 0.00 | 0.00 | 0.00 | 29 | 1022.3 |
| 20260904201606 | 87 | 197 | 4.3 | 10.4 | 0.00 | 0.00 | 0.00 | 30 | 1022.3 |
| 20260904201054 | 86 | 220 | 2.6 | 7.0 | 0.00 | 0.00 | 0.00 | 32 | 1022.4 |
| 20260904200601 | 86 | 261 | 2.6 | 7.0 | 0.00 | 0.00 | 0.00 | 32 | 1022.4 |
| 20260904200004 | 86 | 214 | 0.9 | 4.3 | 0.00 | 0.00 | 0.00 | 31 | 1022.6 |
| 20260904195512 | 86 | 302 | 0.9 | 7.8 | 0.00 | 0.00 | 0.00 | 32 | 1022.6 |
| 20260904195107 | 85 | 269 | 2.6 | 7.8 | 0.00 | 0.00 | 0.00 | 31 | 1022.7 |
| 20260904194508 | 86 | 168 | 4.3 | 7.8 | 0.00 | 0.00 | 0.00 | 32 | 1022.8 |
| 20260904194104 | 85 | 195 | 2.6 | 6.1 | 0.00 | 0.00 | 0.00 | 31 | 1022.9 |
| 20260904193507 | 85 | 244 | 2.6 | 6.1 | 0.00 | 0.00 | 0.00 | 32 | 1023.0 |
| 20260904193103 | 86 | 235 | 2.6 | 7.8 | 0.00 | 0.00 | 0.00 | 32 | 1023.1 |
| 20260904192558 | 85 | 196 | 3.5 | 7.8 | 0.00 | 0.00 | 0.00 | 32 | 1023.1 |
| 20260904192045 | 85 | 61 | 0.0 | 5.2 | 0.00 | 0.00 | 0.00 | 33 | 1023.2 |
| 20260904191554 | 84 | 269 | 0.9 | 5.2 | 0.00 | 0.00 | 0.00 | 33 | 1023.2 |
| 20260904191101 | 83 | 169 | 0.9 | 6.1 | 0.00 | 0.00 | 0.00 | 34 | 1023.3 |
| 20260904190507 | 83 | 292 | 1.7 | 6.1 | 0.00 | 0.00 | 0.00 | 34 | 1023.3 |
| 20260904190058 | 84 | 225 | 0.9 | 7.8 | 0.00 | 0.00 | 0.00 | 34 | 1023.4 |
| 20260904185504 | 84 | 156 | 4.3 | 8.7 | 0.00 | 0.00 | 0.00 | 33 | 1023.4 |
| 20260904185059 | 84 | 147 | 5.2 | 10.4 | 0.00 | 0.00 | 0.00 | 34 | 1023.5 |
| 20260904184503 | 84 | 172 | 2.6 | 9.6 | 0.00 | 0.00 | 0.00 | 33 | 1023.5 |
| 20260904184100 | 84 | 213 | 2.6 | 9.6 | 0.00 | 0.00 | 0.00 | 33 | 1023.6 |
| 20260904183550 | 84 | 102 | 4.3 | 12.2 | 0.00 | 0.00 | 0.00 | 33 | 1023.6 |
| 20260904183113 | 84 | 180 | 5.2 | 9.6 | 0.00 | 0.00 | 0.00 | 33 | 1023.7 |
| 20260904182501 | 83 | 190 | 2.6 | 9.6 | 0.00 | 0.00 | 0.00 | 34 | 1023.8 |
| 20260904182012 | 82 | 204 | 4.3 | 7.8 | 0.00 | 0.00 | 0.00 | 35 | 1023.8 |
| 20260904181612 | 82 | 46 | 2.6 | 7.8 | 0.00 | 0.00 | 0.00 | 34 | 1023.9 |
| 20260904181008 | 83 | 203 | 4.3 | 7.8 | 0.00 | 0.00 | 0.00 | 34 | 1023.9 |
| 20260904180517 | 83 | 238 | 0.9 | 8.7 | 0.00 | 0.00 | 0.00 | 35 | 1024.0 |
| 20260904180059 | 82 | 200 | 3.5 | 7.0 | 0.00 | 0.00 | 0.00 | 36 | 1024.0 |
| 20260904175549 | 81 | 209 | 0.0 | 4.3 | 0.00 | 0.00 | 0.00 | 37 | 1024.1 |
| 20260904175100 | 80 | 30 | 0.9 | 6.1 | 0.00 | 0.00 | 0.00 | 37 | 1024.2 |
| 20260904174605 | 81 | 288 | 1.7 | 6.1 | 0.00 | 0.00 | 0.00 | 37 | 1024.2 |
| 20260904174006 | 81 | 261 | 2.6 | 6.1 | 0.00 | 0.00 | 0.00 | 37 | 1024.2 |
| 20260904173605 | 81 | 173 | 2.6 | 5.2 | 0.00 | 0.00 | 0.00 | 37 | 1024.2 |
| 20260904173013 | 81 | 153 | 0.9 | 7.0 | 0.00 | 0.00 | 0.00 | 37 | 1024.2 |
| 20260904172606 | 80 | 175 | 2.6 | 7.0 | 0.00 | 0.00 | 0.00 | 37 | 1024.2 |
| 20260904172055 | 81 | 171 | 2.6 | 4.3 | 0.00 | 0.00 | 0.00 | 37 | 1024.3 |
| 20260904171622 | 80 | 186 | 0.9 | 5.2 | 0.00 | 0.00 | 0.00 | 38 | 1024.2 |
| 20260904171055 | 80 | 343 | 2.6 | 5.2 | 0.00 | 0.00 | 0.00 | 38 | 1024.2 |
| 20260904170546 | 79 | 350 | 0.9 | 3.5 | 0.00 | 0.00 | 0.00 | 39 | 1024.3 |
| 20260904170055 | 78 | 343 | 0.0 | 4.3 | 0.00 | 0.00 | 0.00 | 39 | 1024.1 |
| 20260904165603 | 77 | 138 | 2.6 | 4.3 | 0.00 | 0.00 | 0.00 | 40 | 1024.2 |
| 20260904165006 | 78 | 284 | 1.7 | 7.0 | 0.00 | 0.00 | 0.00 | 41 | 1024.3 |
| 20260904164601 | 78 | 279 | 2.6 | 7.0 | 0.00 | 0.00 | 0.00 | 40 | 1024.2 |
| 20260904164003 | 78 | 286 | 3.5 | 7.0 | 0.00 | 0.00 | 0.00 | 41 | 1024.3 |
| 20260904163558 | 78 | 146 | 1.7 | 5.2 | 0.00 | 0.00 | 0.00 | 41 | 1024.2 |
| 20260904163001 | 77 | 278 | 1.7 | 3.5 | 0.00 | 0.00 | 0.00 | 40 | 1024.2 |
| 20260904162559 | 77 | 349 | 0.9 | 4.3 | 0.00 | 0.00 | 0.00 | 41 | 1024.3 |
| 20260904162048 | 77 | 284 | 1.7 | 5.2 | 0.00 | 0.00 | 0.00 | 41 | 1024.1 |
| 20260904161556 | 77 | 292 | 0.0 | 5.2 | 0.00 | 0.00 | 0.00 | 41 | 1024.2 |
| 20260904161106 | 76 | 162 | 1.7 | 5.2 | 0.00 | 0.00 | 0.00 | 41 | 1024.2 |
| 20260904160511 | 76 | 63 | 1.7 | 4.3 | 0.00 | 0.00 | 0.00 | 42 | 1024.1 |
| 20260904160107 | 75 | 61 | 1.7 | 3.5 | 0.00 | 0.00 | 0.00 | 44 | 1024.1 |
| 20260904155506 | 74 | 134 | 0.0 | 3.5 | 0.00 | 0.00 | 0.00 | 45 | 1024.0 |
| 20260904155102 | 73 | 75 | 0.9 | 3.5 | 0.00 | 0.00 | 0.00 | 47 | 1024.0 |
| 20260904154503 | 72 | 61 | 0.9 | 2.6 | 0.00 | 0.00 | 0.00 | 50 | 1024.1 |
| 20260904154015 | 71 | 126 | 0.9 | 2.6 | 0.00 | 0.00 | 0.00 | 50 | 1024.1 |
| 20260904153502 | 70 | 107 | 0.9 | 1.7 | 0.00 | 0.00 | 0.00 | 51 | 1024.0 |
| 20260904153017 | 70 | 96 | 0.0 | 1.7 | 0.00 | 0.00 | 0.00 | 51 | 1024.0 |
| 20260904152501 | 70 | 87 | 0.0 | 1.7 | 0.00 | 0.00 | 0.00 | 50 | 1024.0 |
| 20260904152009 | 70 | 97 | 0.9 | 2.6 | 0.00 | 0.00 | 0.00 | 50 | 1024.0 |
| 20260904151606 | 70 | 111 | 0.9 | 2.6 | 0.00 | 0.00 | 0.00 | 50 | 1024.0 |
| 20260904151054 | 70 | 111 | 0.9 | 2.6 | 0.00 | 0.00 | 0.00 | 50 | 1023.9 |
| 20260904150602 | 70 | 126 | 0.9 | 3.5 | 0.00 | 0.00 | 0.00 | 50 | 1023.9 |
| 20260904150005 | 70 | 86 | 1.7 | 5.2 | 0.00 | 0.00 | 0.00 | 51 | 1023.8 |
| 20260904145513 | 70 | 133 | 1.7 | 4.3 | 0.00 | 0.00 | 0.00 | 52 | 1023.9 |
| 20260904145020 | 69 | 134 | 2.6 | 5.2 | 0.00 | 0.00 | 0.00 | 52 | 1023.9 |
| 20260904144528 | 68 | 138 | 1.7 | 5.2 | 0.00 | 0.00 | 0.00 | 53 | 1023.8 |
| 20260904144036 | 68 | 103 | 2.6 | 5.2 | 0.00 | 0.00 | 0.00 | 52 | 1023.7 |
| 20260904143548 | 68 | 117 | 2.6 | 5.2 | 0.00 | 0.00 | 0.00 | 51 | 1023.7 |
| 20260904143104 | 68 | 99 | 2.6 | 5.2 | 0.00 | 0.00 | 0.00 | 51 | 1023.7 |
| 20260904142600 | 68 | 100 | 2.6 | 6.1 | 0.00 | 0.00 | 0.00 | 52 | 1023.6 |
| 20260904142047 | 67 | 144 | 3.5 | 5.2 | 0.00 | 0.00 | 0.00 | 52 | 1023.6 |
| 20260904141605 | 66 | 115 | 1.7 | 5.2 | 0.00 | 0.00 | 0.00 | 52 | 1023.5 |
| 20260904141106 | 66 | 90 | 3.5 | 5.2 | 0.00 | 0.00 | 0.00 | 52 | 1023.5 |
| 20260904140505 | 65 | 120 | 2.6 | 6.1 | 0.00 | 0.00 | 0.00 | 52 | 1023.5 |
| 20260904140030 | 65 | 119 | 2.6 | 6.1 | 0.00 | 0.00 | 0.00 | 53 | 1023.5 |
| 20260904135505 | 64 | 115 | 2.6 | 5.2 | 0.00 | 0.00 | 0.00 | 53 | 1023.4 |
| 20260904135012 | 64 | 133 | 1.7 | 5.2 | 0.00 | 0.00 | 0.00 | 54 | 1023.3 |
| 20260904134501 | 64 | 105 | 1.7 | 3.5 | 0.00 | 0.00 | 0.00 | 54 | 1023.3 |
| 20260904134009 | 63 | 82 | 1.7 | 3.5 | 0.00 | 0.00 | 0.00 | 54 | 1023.2 |
| 20260904133608 | 63 | 104 | 1.7 | 6.1 | 0.00 | 0.00 | 0.00 | 55 | 1023.2 |
| 20260904133057 | 63 | 101 | 1.7 | 6.1 | 0.00 | 0.00 | 0.00 | 55 | 1023.1 |
| 20260904132605 | 62 | 101 | 2.6 | 5.2 | 0.00 | 0.00 | 0.00 | 56 | 1023.1 |
| 20260904132056 | 62 | 103 | 1.7 | 5.2 | 0.00 | 0.00 | 0.00 | 57 | 1023.0 |
| 20260904131548 | 62 | 94 | 2.6 | 5.2 | 0.00 | 0.00 | 0.00 | 57 | 1022.9 |
| 20260904131055 | 62 | 103 | 1.7 | 2.6 | 0.00 | 0.00 | 0.00 | 57 | 1022.9 |
| 20260904130604 | 62 | 119 | 0.0 | 0.9 | 0.00 | 0.00 | 0.00 | 57 | 1022.8 |
| 20260904130007 | 62 | 119 | 0.0 | 1.7 | 0.00 | 0.00 | 0.00 | 56 | 1022.8 |
| 20260904125603 | 62 | 119 | 0.0 | 2.6 | 0.00 | 0.00 | 0.00 | 56 | 1022.7 |
| 20260904125007 | 62 | 117 | 0.9 | 3.5 | 0.00 | 0.00 | 0.00 | 56 | 1022.6 |
| 20260904124603 | 62 | 138 | 1.7 | 5.2 | 0.00 | 0.00 | 0.00 | 56 | 1022.5 |
| 20260904124004 | 62 | 123 | 2.6 | 5.2 | 0.00 | 0.00 | 0.00 | 56 | 1022.5 |
| 20260904123600 | 62 | 101 | 1.7 | 4.3 | 0.00 | 0.00 | 0.00 | 56 | 1022.4 |
| 20260904123049 | 62 | 117 | 3.5 | 5.2 | 0.00 | 0.00 | 0.00 | 56 | 1022.4 |
| 20260904122558 | 62 | 123 | 2.6 | 5.2 | 0.00 | 0.00 | 0.00 | 57 | 1022.3 |
| 20260904122049 | 62 | 111 | 2.6 | 5.2 | 0.00 | 0.00 | 0.00 | 57 | 1022.2 |
| 20260904121559 | 62 | 107 | 3.5 | 5.2 | 0.00 | 0.00 | 0.00 | 57 | 1022.2 |
| 20260904121051 | 62 | 106 | 3.5 | 4.3 | 0.00 | 0.00 | 0.00 | 57 | 1022.2 |
| 20260904120540 | 63 | 101 | 2.6 | 5.2 | 0.00 | 0.00 | 0.00 | 57 | 1022.2 |
| 20260904120051 | 63 | 91 | 2.6 | 3.5 | 0.00 | 0.00 | 0.00 | 56 | 1022.2 |
| 20260904115558 | 63 | 102 | 1.7 | 3.5 | 0.00 | 0.00 | 0.00 | 55 | 1022.2 |
| 20260904115106 | 63 | 105 | 1.7 | 4.3 | 0.00 | 0.00 | 0.00 | 55 | 1022.2 |
| 20260904114555 | 63 | 105 | 2.6 | 4.3 | 0.00 | 0.00 | 0.00 | 54 | 1022.0 |
| 20260904114102 | 64 | 72 | 2.6 | 4.3 | 0.00 | 0.00 | 0.00 | 54 | 1021.9 |
| 20260904113555 | 64 | 82 | 2.6 | 4.3 | 0.00 | 0.00 | 0.00 | 54 | 1022.0 |
| 20260904113103 | 64 | 84 | 3.5 | 7.0 | 0.00 | 0.00 | 0.00 | 54 | 1022.0 |
| 20260904112509 | 64 | 107 | 2.6 | 7.0 | 0.00 | 0.00 | 0.00 | 54 | 1022.0 |
| 20260904112100 | 64 | 71 | 2.6 | 5.2 | 0.00 | 0.00 | 0.00 | 54 | 1021.9 |
| 20260904111504 | 64 | 79 | 2.6 | 4.3 | 0.00 | 0.00 | 0.00 | 54 | 1021.9 |
| 20260904111012 | 64 | 95 | 1.7 | 4.3 | 0.00 | 0.00 | 0.00 | 54 | 1022.0 |
| 20260904110520 | 64 | 104 | 1.7 | 4.3 | 0.00 | 0.00 | 0.00 | 54 | 1021.9 |
| 20260904110027 | 64 | 96 | 1.7 | 4.3 | 0.00 | 0.00 | 0.00 | 54 | 1022.0 |
| 20260904105538 | 64 | 63 | 1.7 | 7.0 | 0.00 | 0.00 | 0.00 | 54 | 1022.0 |
| 20260904105045 | 64 | 78 | 3.5 | 7.0 | 0.00 | 0.00 | 0.00 | 55 | 1021.9 |
| 20260904104556 | 64 | 83 | 2.6 | 6.1 | 0.00 | 0.00 | 0.00 | 55 | 1021.9 |
| 20260904104042 | 64 | 77 | 2.6 | 5.2 | 0.00 | 0.00 | 0.00 | 56 | 1021.9 |
| 20260904103549 | 64 | 68 | 2.6 | 4.3 | 0.00 | 0.00 | 0.00 | 56 | 1021.8 |
| 20260904103057 | 64 | 84 | 1.7 | 4.3 | 0.00 | 0.00 | 0.00 | 55 | 1021.9 |
| 20260904102605 | 64 | 92 | 2.6 | 5.2 | 0.00 | 0.00 | 0.00 | 55 | 1021.8 |
| 20260904102008 | 64 | 71 | 3.5 | 5.2 | 0.00 | 0.00 | 0.00 | 56 | 1021.8 |
| 20260904101516 | 64 | 92 | 1.7 | 5.2 | 0.00 | 0.00 | 0.00 | 57 | 1021.7 |
| 20260904101023 | 65 | 87 | 2.6 | 6.1 | 0.00 | 0.00 | 0.00 | 57 | 1021.7 |
| 20260904100530 | 65 | 119 | 2.6 | 3.5 | 0.00 | 0.00 | 0.00 | 58 | 1021.5 |
| 20260904100009 | 65 | 96 | 1.7 | 3.5 | 0.00 | 0.00 | 0.00 | 58 | 1021.5 |
| 20260904095602 | 65 | 98 | 1.7 | 3.5 | 0.00 | 0.00 | 0.00 | 59 | 1021.3 |
| 20260904095103 | 65 | 78 | 0.9 | 2.6 | 0.00 | 0.00 | 0.00 | 60 | 1021.4 |
| 20260904094506 | 65 | 94 | 0.0 | 1.7 | 0.00 | 0.00 | 0.00 | 60 | 1021.3 |
| 20260904094013 | 65 | 65 | 0.0 | 1.7 | 0.00 | 0.00 | 0.00 | 60 | 1021.2 |
| 20260904093521 | 65 | 65 | 0.9 | 3.5 | 0.00 | 0.00 | 0.00 | 60 | 1021.2 |
| 20260904093029 | 65 | 80 | 0.9 | 3.5 | 0.00 | 0.00 | 0.00 | 60 | 1021.3 |
| 20260904092536 | 65 | 101 | 1.7 | 3.5 | 0.00 | 0.00 | 0.00 | 60 | 1021.1 |
| 20260904092044 | 65 | 89 | 1.7 | 2.6 | 0.00 | 0.00 | 0.00 | 60 | 1021.2 |
| 20260904091552 | 65 | 5 | 0.0 | 1.7 | 0.00 | 0.00 | 0.00 | 59 | 1021.2 |
| 20260904091042 | 65 | 5 | 0.0 | 1.7 | 0.00 | 0.00 | 0.00 | 59 | 1021.2 |
| 20260904090550 | 66 | 5 | 0.0 | 1.7 | 0.00 | 0.00 | 0.00 | 59 | 1021.2 |
| 20260904090108 | 66 | 5 | 0.0 | 1.7 | 0.00 | 0.00 | 0.00 | 59 | 1021.1 |
| 20260904085502 | 66 | 5 | 0.0 | 1.7 | 0.00 | 0.00 | 0.00 | 59 | 1021.0 |
| 20260904085056 | 66 | 5 | 0.9 | 1.7 | 0.00 | 0.00 | 0.00 | 58 | 1021.0 |
| 20260904084612 | 66 | 116 | 0.9 | 1.7 | 0.00 | 0.00 | 0.00 | 58 | 1021.1 |
| 20260904084100 | 66 | 116 | 0.0 | 1.7 | 0.00 | 0.00 | 0.00 | 57 | 1021.2 |
| 20260904083604 | 67 | 116 | 0.0 | 1.7 | 0.00 | 0.00 | 0.00 | 57 | 1021.2 |
| 20260904083057 | 67 | 116 | 0.0 | 1.7 | 0.00 | 0.00 | 0.00 | 57 | 1021.2 |
| 20260904082550 | 67 | 116 | 0.0 | 1.7 | 0.00 | 0.00 | 0.00 | 57 | 1021.3 |
| 20260904082055 | 67 | 116 | 0.9 | 2.6 | 0.00 | 0.00 | 0.00 | 56 | 1021.3 |
| 20260904081603 | 67 | 116 | 1.7 | 2.6 | 0.00 | 0.00 | 0.00 | 56 | 1021.3 |
| 20260904081005 | 68 | 129 | 1.7 | 1.7 | 0.00 | 0.00 | 0.00 | 55 | 1021.3 |